This is the latest recevied weather packets stored in our database for station/object YO8SDE-8. If no packets are shown the sender has not sent any weather packets the latest 10 day(s).
| Time | Temp. | Humidity | Pressure | Rain* | Wind** | Luminosity | Snow |
|---|---|---|---|---|---|---|---|
| 1777900861 | 36.11° C | 17% | 1002.4 hPa | 0 mm | - | - | - |
| 1777900561 | 36.67° C | 17% | 1002.4 hPa | 0 mm | - | - | - |
| 1777900261 | 36.67° C | 17% | 1002.4 hPa | 0 mm | - | - | - |
| 1777899961 | 36.11° C | 17% | 1002.4 hPa | 0 mm | - | - | - |
| 1777899661 | 36.11° C | 17% | 1002.5 hPa | 0 mm | - | - | - |
| 1777899361 | 35.56° C | 17% | 1002.5 hPa | 0 mm | - | - | - |
| 1777899061 | 36.11° C | 17% | 1002.7 hPa | 0 mm | - | - | - |
| 1777898761 | 35.56° C | 16% | 1002.8 hPa | 0 mm | - | - | - |
| 1777898461 | 36.11° C | 17% | 1002.7 hPa | 0 mm | - | - | - |
| 1777898161 | 36.67° C | 18% | 1002.7 hPa | 0 mm | - | - | - |
| 1777897861 | 35° C | 18% | 1002.9 hPa | 0 mm | - | - | - |
| 1777897561 | 35° C | 18% | 1003 hPa | 0 mm | - | - | - |
| 1777897261 | 34.44° C | 18% | 1003.1 hPa | 0 mm | - | - | - |
| 1777896961 | 32.78° C | 20% | 1003 hPa | 0 mm | - | - | - |
| 1777896661 | 32.22° C | 20% | 1003 hPa | 0 mm | - | - | - |
| 1777896361 | 33.33° C | 19% | 1003.1 hPa | 0 mm | - | - | - |
| 1777896061 | 33.89° C | 19% | 1003.2 hPa | 0 mm | - | - | - |
| 1777895761 | 33.89° C | 20% | 1003.3 hPa | 0 mm | - | - | - |
| 1777895461 | 34.44° C | 19% | 1003.3 hPa | 0 mm | - | - | - |
| 1777895161 | 34.44° C | 19% | 1003.3 hPa | 0 mm | - | - | - |
| 1777894861 | 33.89° C | 20% | 1003.4 hPa | 0 mm | - | - | - |
| 1777894561 | 33.33° C | 19% | 1003.5 hPa | 0 mm | - | - | - |
| 1777894261 | 33.33° C | 20% | 1003.5 hPa | 0 mm | - | - | - |
| 1777893961 | 32.78° C | 20% | 1003.5 hPa | 0 mm | - | - | - |
| 1777893661 | 33.33° C | 19% | 1003.8 hPa | 0 mm | - | - | - |
* Rain latest hour (hover to see other rain measurements)
** Current wind speed in m/s (hover to see current wind gust speed)